Flag for Canada Weather past 2 weeks in Burnaby, British Columbia, Canada

Now
55 °F

Passing clouds.


Feels Like: 54 °F
Forecast: 50 / 60 °F
Wind: 6 mph from Northwest

Location: Vancouver International Air-Port

Current Time: Sep 30, 2014 at 6:51:44 AM

Latest Report: Sep 30, 2014 at 6:00 AM


Visibility: 15 mi

Pressure: 29.98 "Hg

Humidity: 94%

Dew point: 54 °F

Location of BurnabyLocation

Historic Weather in Burnaby — Graph

°F

Burnaby temperature yesterday

Maximum temperature yesterday: 59 °F (at 4:00 PM)
Minimum temperature yesterday: 54 °F (at 2:00 AM)
Average temperature yesterday: 57 °F

Past Weeks' High & Low Weather Summary

 TemperatureHumidityPressure
High75 °F (Sep 21, 5:00 PM)100% (Sep 18, 5:00 AM)30.17 "Hg (Sep 18, 5:00 AM)
Low50 °F (Sep 21, 7:00 AM)47% (Sep 16, 4:00 PM)29.63 "Hg (Sep 24, 1:00 AM)
Average61 °F86%29.90 "Hg
* Reported Sep 15 5:00 AM — Sep 30 5:00 AM, Burnaby, Weather by CustomWeather, © 2014

Note: Actual official high and low records may vary slightly from our data, if they occured in-between our weather recording intervals... More about our weather records

Advertising

Burnaby weather history for previous 24 hours

 ConditionsComfort  
Time TempWeatherWind HumidityBarometerVisibility
5:00 AM
Sep 30
57 °FPassing clouds.9 mph88%29.97 "Hg15 mi
4:00 AM57 °FPassing clouds.12 mph88%29.96 "Hg15 mi
3:00 AM55 °FPassing clouds.12 mph94%29.95 "Hg15 mi
2:00 AM57 °FLow clouds.12 mph94%29.94 "Hg12 mi
1:00 AM57 °FPartly cloudy.12 mph88%29.92 "Hg15 mi
12:00 AM57 °FPassing clouds.9 mph94%29.91 "Hg12 mi
11:52 PM
Sep 29
57 °FMostly cloudy.9 mph94%29.91 "Hg12 mi
11:00 PM57 °FPassing clouds.7 mph94%29.91 "Hg12 mi
10:00 PM57 °FMostly cloudy.9 mph94%29.90 "Hg12 mi
9:00 PM57 °FMostly cloudy.7 mph94%29.88 "Hg12 mi
8:00 PM55 °FPassing clouds.No wind100%29.86 "Hg15 mi
7:00 PM57 °FPartly sunny.5 mph94%29.85 "Hg12 mi
6:00 PM59 °FPartly sunny.9 mph88%29.84 "Hg15 mi
5:00 PM59 °FMostly cloudy.7 mph88%29.84 "Hg15 mi
4:00 PM59 °FOvercast.8 mph88%29.85 "Hg12 mi
3:00 PM57 °FMostly cloudy.8 mph94%29.85 "Hg15 mi
2:00 PM57 °FLight rain. Mostly cloudy.7 mph94%29.85 "Hg8 mi
1:00 PM57 °FRain. Fog.6 mph94%29.86 "Hg2 mi
12:00 PM57 °FLight rain. Fog.9 mph94%29.86 "Hg5 mi
11:00 AM57 °FLight rain. Fog.9 mph94%29.87 "Hg5 mi
10:00 AM57 °FLight rain. Mostly cloudy.10 mph94%29.88 "Hg10 mi
9:00 AM57 °FCloudy.15 mph94%29.88 "Hg15 mi
8:00 AM57 °FLight rain. Mostly cloudy.12 mph88%29.87 "Hg15 mi
7:00 AM57 °FMostly cloudy.15 mph88%29.85 "Hg15 mi
6:00 AM55 °FOvercast.10 mph94%29.87 "Hg15 mi
Weather by CustomWeather, © 2014

See weather overviewHow to use our weather pages